Other Public Products
Issued by NWS Charleston, SC

Current Version | Previous Version | Text Only | Print | Product List | Glossary Off
Versions: 1 2 3 4 5 6 7 8 9 10 11 12 13 14 15 16 17 18 19 20 21 22 23 24 25 26 27 28 29 30 31 32 33 34 35 36 37 38 39 40 41 42 43 44 45 46 47 48 49 50

441
FPUS82 KCHS 230527
OPUCHS

TEST...KCHS/KSAV Gateway Observations...TEST
National Weather Service Charleston SC
100 AM EDT SAT SEP 23 2017

NOTE: "fair" indicates few or no clouds below 12,000 feet with no
significant weather and/or obstructions to visibility.

SCZ050-WAZ558-NCZ071-TXZ119-213-PAZ071-DCZ001-FLZ074-172-MI076-
NYZ176-178-MAZ016-IL014-TNZ027-NJZ106-GAZ044-MD014-230600-

...Gateway Observations for Charleston International...

CITY           SKY/WX    TMP DP  RH WIND       PRES   REMARKS
Chas Airport   CLEAR     72  72 100 CALM      30.00S FOG
Seattle        MOCLDY    62  46  55 S5        30.04S
Charlotte      PTCLDY    69  66  90 N3        30.05S
Dallas DFW     CLEAR     81  67  62 S8        29.92R
Dallas Love    CLEAR     81  66  60 SE9       29.93R
Philladelphia  MOCLDY    72  54  53 NW8       30.01R
Wash National  MOCLDY    70  65  84 N7        30.02S
Baltimore      CLOUDY    63  62  97 NW3       30.01S
Miami          CLOUDY    79  79 100 E5        29.85F
Detroit        CLEAR     70  66  87 CALM      30.10S
Newark         PTCLDY    73  54  51 N12       29.99R
Laguardia      PTCLDY    72  57  59 N8        29.98R
J F K          PTCLDY    71  57  61 N17       29.98S
Boston Logan   DRIZZLE   62  60  93 N17G28    29.99F
Ft. Lauderdale CLOUDY    80  77  90 NE5       29.83F
Chicago O`Hare CLEAR     77  66  68 SE3       30.03S
Chicago Midway CLEAR     82  68  62 SE3       30.04S
Houston Bush   CLEAR     76  73  91 CALM      29.92S
Houston Hobby  PTCLDY    79  73  82 CALM      29.91S
Nashville      PTCLDY    73  68  84 CALM      30.03S
Atlanta        PTCLDY    74  68  81 CALM      30.04F

$$

GAZ044-118-TXZ119-213-NCZ071-DCZ001-MDZ014-506-PAZ021-071-NJZ106-
NYZ176-178-MAZ106-OHZ011-021-055-MIZ076-KYZ091-ILZ014-INZ047-
MNZ060-ONZ431-230600-

...Gateway Observations for Savannah International...

CITY           SKY/WX    TMP DP  RH WIND       PRES   REMARKS
Savannah Arpt  CLEAR     72  71  97 CALM      30.00S
Atlanta        PTCLDY    74  68  81 CALM      30.04F
Charlotte      PTCLDY    69  66  90 N3        30.05S
Dallas DFW     CLEAR     81  67  62 S8        29.92R
Houston Bush   CLEAR     76  73  91 CALM      29.92S
Wash National  MOCLDY    70  65  84 N7        30.02S
Wash Dulles    PTCLDY    63  63 100 NW3       30.04S
Baltimore      CLOUDY    63  62  97 NW3       30.01S
Philadelphia   MOCLDY    72  54  53 NW8       30.01R
Newark         PTCLDY    73  54  51 N12       29.99R
Laguardia      PTCLDY    72  57  59 N8        29.98R
J F K          PTCLDY    71  57  61 N17       29.98S
Boston         DRIZZLE   62  60  93 N17G28    29.99F
Pittsburg      PTCLDY    62  58  86 SE3       30.10F
Akron          MOCLDY    67  58  72 E5        30.11S
Cleveland      PTCLDY    68  61  78 CALM      30.11S
Cincinnati     CLEAR     72  67  84 CALM      30.08R
Columbus       PTCLDY    68  66  94 CALM      30.08S
Detroit        CLEAR     70  66  87 CALM      30.10S
Chicago O`Hare CLEAR     77  66  68 SE3       30.03S
Minneapolis    CLOUDY    83  69  62 S10       29.86R
Indianapolis   PTCLDY    75  66  73 CALM      30.06S
Toronto Canada CLEAR     68  54  60 NW5       30.09S

$$




USA.gov is the U.S. government's official web portal to all federal, state and local government web resources and services.